This demonstration page uses our WeatherBlox Daily Observations layout. Learn more.

Left ArrowRight Arrow

Hourly Observations for March 1, 2020

Temp ( °F °C ) Dew Point ( °F °C ) Humidity (%) Winds ( mph kmh ) Pressure ( in mb ) Visibility ( mi km ) Precip ( " mm )
7:55 am 07:55 Sunny 28 -2.4 19 -7.3 69 69 N N/A 30.15 1021 10 16 N/A
8:15 am 08:15 Sunny 29 -1.6 20 -6.9 68 68 SSE 9 15 30.15 1021 10 16 N/A
8:35 am 08:35 Sunny 31 -0.7 20 -6.8 64 64 SSE 10 17 30.14 1021 10 16 N/A
8:55 am 08:55 Sunny 32 -0.1 20 -6.6 62 62 SSE 13 20 30.13 1020 10 16 N/A
9:15 am 09:15 Sunny 33 0.5 21 -6 62 62 SSE 12 19 30.12 1020 10 16 N/A
9:35 am 09:35 Sunny 34 1.1 22 -5.5 62 62 SSE 13 20 30.11 1020 10 16 N/A
9:55 am 09:55 Sunny 36 2.1 23 -5.2 59 59 SSE 12 19 30.10 1019 10 16 N/A
10:15 am 10:15 Sunny 37 2.8 24 -4.7 58 58 SSE 13 20 30.09 1019 10 16 N/A
10:30 am 10:30 Sunny 39 3.7 24 -4.2 57 57 SSE 12 19 30.09 1019 10 16 N/A
1:15 pm 13:15 Sunny 55 12.8 35 1.7 47 47 S 13 20 29.97 1015 10 16 N/A
1:35 pm 13:35 Sunny 55 13 36 2.1 48 48 S 14 22 29.96 1015 10 16 N/A
1:55 pm 13:55 Sunny 56 13.3 36 2.4 48 48 SSW 15 24 29.94 1014 10 16 N/A
2:15 pm 14:15 Sunny 56 13.5 36 2 46 46 S 15 24 29.93 1014 10 16 N/A
2:35 pm 14:35 Sunny 58 14.3 37 2.5 45 45 S 13 20 29.92 1013 10 16 N/A
2:55 pm 14:55 Sunny 58 14.6 36 2.2 43 43 S 21 33 29.91 1013 10 16 N/A
3:15 pm 15:15 Sunny 58 14.5 36 2 43 43 S 15 24 29.90 1012 10 16 N/A
3:35 pm 15:35 Sunny 58 14.4 36 2.2 44 44 S 13 20 29.89 1012 10 16 N/A
3:55 pm 15:55 Sunny 58 14.7 36 2.3 43 43 S 13 20 29.88 1012 10 16 N/A
4:15 pm 16:15 Sunny 60 15.5 37 2.9 43 43 S 15 24 29.87 1012 10 16 N/A
4:35 pm 16:35 Sunny 62 16.6 43 5.9 49 49 SW 22 35 29.87 1012 10 16 N/A
4:55 pm 16:55 Partly Cloudy 61 16 43 6.3 53 53 SW 16 26 29.86 1011 10 16 N/A
5:15 pm 17:15 Partly Cloudy 60 15.7 43 6.2 53 53 SW 13 20 29.86 1011 10 16 N/A
5:35 pm 17:35 Partly Cloudy 59 15.2 43 6.3 56 56 SSW 15 24 29.86 1011 10 16 N/A

Powered by AerisWeather